India Forums Logo

Ishq ka Rang Safed

India Forums > Forum Index > Ishq ka Rang Safed
Ishq ka Rang Safed
Concept & Story: Ishq ka Rang Safed
<< | 1 | 2 | 3 | 4 | 5 | 6 | 7 | 8 | 9 | 10 | ... >>
TIDTopic SubjectStart DateLast Entry
4441818Rekha-bharadwaj-to-sing-for-ishq-ka-rang-safed8/8/2015 8:02:06 PM8/11/2015 6:01:11 AM
4441824Yay IKRS Forum Opened...!!8/8/2015 8:15:29 PM8/27/2015 7:25:45 AM
4441850*~Ishq Ka Rang Safed*~ *Introduction Corner*8/8/2015 9:09:17 PM8/9/2015 2:27:36 AM
4441854Launch: 'Ishq Ka Rang Safed'+Photos+Promo!!!8/8/2015 9:19:12 PM8/26/2015 12:21:46 PM
4441862*Onscreen/Offscreen JODI Name Suggestions*/Duration Over8/8/2015 9:33:52 PM8/11/2015 4:38:37 AM
4441895CONFIRMED : IKRS To Air on both 6:30 and 10:30 Slot and Repeats8/8/2015 10:56:37 PM8/9/2015 10:48:28 PM
4441902Confusion Cleared : It's Viplav and Dhani8/8/2015 11:09:43 PM8/10/2015 7:02:09 AM
4441976How Many Of U Guys Are Excited For The Tomorrow's Episode??8/9/2015 1:26:59 AM8/10/2015 1:18:46 PM
4442002IKRS Rules Thread - READ BEFORE POSTING8/9/2015 2:36:46 AM8/9/2015 2:37:07 AM
4442005IKRS Welcome and Permissions Thread - PLEASE READ8/9/2015 2:40:34 AM10/24/2015 3:50:50 PM
4442015Colors Time Counter for IKRS Starts8/9/2015 3:04:59 AM8/10/2015 8:08:09 AM
44420238th August IKRS:-All Segments(UMTv & SBB)/Video Links8/9/2015 3:20:13 AM8/26/2015 11:54:50 AM
4442031On Which Time Slot You will watch IKRS?8/9/2015 3:31:02 AM8/10/2015 3:41:31 AM
4442043**Ishq Ka Rang Safed Picture Gallery- No Comments**8/9/2015 3:50:56 AM3/19/2017 10:01:10 AM
4442215IF Articles..Plz Comment For Mishal Raheja!8/9/2015 9:09:50 AM8/27/2015 2:45:50 AM
4442236why this show will rock in Barc ratings!!!!8/9/2015 10:10:43 AM8/13/2015 1:30:20 AM
4442280Ishq Ka Rang Safed Promotion Indore!8/9/2015 11:16:07 AM9/8/2015 4:56:33 AM
4442393Ishq Ka Rang Safed Helpdesk8/9/2015 4:24:09 PM4/5/2016 12:35:59 AM
4442394IKRS Written Update Sign-Up Sheet - Tuesday & Wednesday Regular Ne8/9/2015 4:32:26 PM3/2/2016 3:07:38 AM
4442403The Potential Of The Show8/9/2015 5:14:25 PM8/10/2015 11:59:02 PM
4442443The Adda..(Mishal Crazies Reside Here) | Mishal Raheja @ 18/9/2015 10:13:42 PM9/22/2015 4:08:19 AM
4442459'Ishq Ka Rang Safed' portrays unconventional love8/9/2015 11:17:20 PM8/26/2015 12:14:30 PM
4442480Spoilers For This Week!!!!8/8/2015 9:04:40 PM8/13/2015 9:43:44 PM
4442481Ishq Rang Ka Safed:New Promo!!!!8/10/2015 12:22:55 AM8/11/2015 12:10:14 AM
4442485TB Article : Top 5 Single Heartthrobs of Telly /MR Mentioned8/10/2015 12:30:02 AM9/6/2015 1:25:53 PM
4442539Colors channel new tweet8/10/2015 2:01:26 AM8/10/2015 6:19:48 AM
4442601Timings8/10/2015 3:34:33 AM9/6/2015 8:25:37 AM
4442609Ishq-Ka-Rang-Safed-Impossible-love-story-plot-details-revealed8/10/2015 3:43:04 AM8/10/2015 3:43:04 AM
4442625{* Ishq Ka Rang Safed TRP Thread *} Week 39 Trp- 1,3 (0.1 Rise)8/10/2015 4:04:21 AM10/10/2015 2:01:50 AM
4442659Ishq Ka Rang Safed Social Media Updates8/10/2015 4:55:03 AM9/15/2015 11:25:21 AM
444270410th August 2015 Written Update8/10/2015 5:58:02 AM8/11/2015 8:17:46 AM
4442709Television has more impact on viewers than films: Eisha Singh8/10/2015 6:09:02 AM8/10/2015 6:18:56 AM
4442710Ishq-Ka-Rang-Safed-Exclusive-Introducing-Lead-Viplav-And-Dhani-Video!!8/10/2015 6:16:20 AM8/12/2015 12:41:42 PM
4442720*~* IKRS Members Introduction *~*8/10/2015 6:30:47 AM8/27/2016 3:40:28 AM
4442752**Ishq Ka Rang Safed- Episode Discussion Thread**8/10/2015 7:19:21 AM5/10/2016 10:06:04 PM
4442796Rate IKRS : Episode 18/10/2015 8:08:00 AM8/10/2015 9:52:38 AM
4442829COUPLE NAME8/10/2015 8:41:06 AM8/10/2015 2:19:42 PM
4442884IKRS Settings..Benaras ?8/10/2015 9:32:19 AM8/11/2015 3:22:41 AM
4442889today's episode- chemistry is set to create a "safed" magic.8/10/2015 9:34:53 AM8/10/2015 2:14:53 PM
4442924Creations ?8/10/2015 10:10:20 AM8/10/2015 2:17:54 PM
4442998Impressive First Episode - My Review8/10/2015 11:14:12 AM8/11/2015 4:54:29 AM
4443002IKRS Launch : Interview With Mishal & Eisha (video)!8/10/2015 11:15:18 AM8/26/2015 12:06:03 PM
4443013Ishq Ka Rang Safed::Creation Gallery8/10/2015 11:27:19 AM10/23/2016 12:39:06 AM
4443043Beautiful Episode..My Review..8/10/2015 12:01:17 PM8/11/2015 1:49:26 AM
4443123On Location Videos Of IKRS 10/8/20158/10/2015 2:11:56 PM8/13/2015 12:31:36 PM
4443150Tips And Tricks For CM Rank8/10/2015 3:28:35 PM8/13/2015 11:50:32 AM
4443158Hits and misses..8/10/2015 3:42:48 PM8/11/2015 10:44:54 PM
4443232Pilot episode.. my take8/10/2015 7:58:52 PM8/15/2015 10:32:15 PM
4443272Viplav and Dhani Visit Ganesh Temple (Video)!8/10/2015 9:30:38 PM8/26/2015 12:25:00 PM
4443285Cast Exclusive Videos on Colors Website!!8/10/2015 9:59:31 PM8/27/2015 1:52:34 AM
4443289Will Arun Bakshi Sing In IKRS?(Yes. He did)!8/10/2015 10:05:15 PM8/30/2015 4:14:28 PM
4443292*~* IKRS Chit Chat Corner #1 *~*8/10/2015 10:10:02 PM3/8/2016 9:40:31 AM
4443350PRECAP8/11/2015 12:04:07 AM8/11/2015 1:01:40 AM
4443354Ishq Rang Ka Safed:New Promo!!Dhaani gets Arrested!Viplav Rescues Her!8/11/2015 12:05:51 AM8/11/2015 4:58:36 AM
4443365new promo- viplav says is ladaki ka koi dosh nahi..8/11/2015 12:15:01 AM8/11/2015 2:26:19 AM
4443418Will Dhani's love manage to change Viplav's attitude?8/11/2015 1:58:18 AM8/11/2015 8:35:32 AM
4443420music - a rhythmic strength to the show8/11/2015 1:59:12 AM8/12/2015 12:56:13 AM
4443463TB article:Acting-Was-There-In-My-Mind-Since-I-Was-Four-Eisha-Singh8/11/2015 3:04:10 AM8/11/2015 5:52:12 AM
4443504How about this jodi name?8/11/2015 3:54:47 AM8/11/2015 4:03:30 AM
4443537Mishal Raheja: Every actor wants to be in Bollywood8/11/2015 4:25:11 AM8/11/2015 9:20:52 AM
4443552About widows of Varanasi8/11/2015 4:51:02 AM8/12/2015 2:02:22 AM
4443553*Official On-Screen JODI Name VOTING*8/11/2015 4:52:04 AM8/12/2015 12:59:37 AM
4443579TB article!!!Every-Actor-Wants-To-Be-In-Bollywood-Mishal-Raheja!!!8/11/2015 5:21:27 AM8/11/2015 8:44:10 PM
4443629Ishq Ka Rang Safed - Spoiler's Corner - Post ALL Spoilers Here8/11/2015 6:27:31 AM5/26/2016 10:33:04 PM
4443636*Official Off-Screen JODI Name VOTING*8/11/2015 6:40:08 AM8/12/2015 3:29:16 AM
4443655Viplav's character is shown too OTT!8/11/2015 7:03:31 AM8/11/2015 6:50:09 PM
4443675Ishq Ka Rang Safed Written Update 11th Aug8/11/2015 7:36:45 AM8/12/2015 12:32:18 PM
4443680director sirji please make us to watch this show..8/11/2015 7:47:21 AM8/11/2015 12:28:14 PM
4443763Enjoy The Pani Pori With Mishal Raheja (Video)8/11/2015 9:10:35 AM8/26/2015 12:15:56 PM
4443863Disclaimer Sums Up Whole Story..!!8/11/2015 10:41:44 AM8/11/2015 12:56:02 PM
4443945Ishq Ka Rang Safed||An Analysis Of The Title||8/11/2015 11:58:53 AM8/11/2015 12:37:56 PM
4443956Viplav is living in a Bubble...!!8/11/2015 12:11:45 PM8/12/2015 1:45:58 PM
4443961Will it be obsessive love from Viplav's side?8/11/2015 12:17:25 PM8/11/2015 1:04:42 PM
4444026Heart Goes Out For the two...the blame game...8/11/2015 2:01:48 PM8/12/2015 1:32:11 PM
4444069The Two Faced Lords...Most Dangerous..8/11/2015 3:37:54 PM8/11/2015 3:37:54 PM
<< | 1 | 2 | 3 | 4 | 5 | 6 | 7 | 8 | 9 | 10 | ... >>